www.pogodaiklimat.ru

Погода и климат >> Архив погоды >> Россия >> Красноярский край >> Светлогорск


ПОГОДА в Светлогорске

  • Прогноз погоды в Светлогорске
  • Монитор погоды в Светлогорске

АРХИВ ПОГОДЫ в Светлогорске

Время (UTC), дата Ветер
(напр.,м/с)
 
Видим.   Явления Облачность Т
(С)
Тd
(С)
f
(%)
Тe
(С)
Тes
(С)
Комфортность P
(гПа)
Po
(гПа)
Тmin
(С)
Tmax
(С)
R
(мм)
R24
(мм)
S
(см)
09 12.04 Ю 3 н/о н/о -8.0 -15.2 56 -13 -13 1018.2 1005.1
12 12.04 ЮВ 3 н/о н/о -8.9 -16.0 56 -14 -14 1015.5 1002.4 -7.5
15 12.04 В 2 н/о н/о -11.9 -17.6 63 -16 -16 1012.6 999.4
18 12.04 СВ 4 н/о н/о -13.1 -17.9 67 -20 -20 1008.6 995.4
21 12.04 В 5 н/о н/о -13.8 -18.3 69 -22 -22 1005.2 991.9
00 13.04 В 5-10
{10}
н/о н/о -13.7 -18.3 68 -22 -22 1003.1 989.9 -14.4 126
03 13.04 В 5
{10}
н/о н/о -10.0 -17.4 55 -18 -18 1001.8 988.8
06 13.04 СВ 3 н/о н/о -5.7 -14.7 49 -11 -11 1000.7 987.9
09 13.04 В 3 н/о н/о -3.0 -15.4 38 -7 -7 1000.1 987.5
12 13.04 В 2 н/о н/о -3.4 -15.3 39 -7 -7 1000.9 988.2 -2.3
15 13.04 В 3 н/о н/о -6.1 -15.4 48 -11 -11 1001.1 988.2
18 13.04 СВ 4 н/о н/о -8.5 -15.6 56 -15 -15 1000.7 987.8
21 13.04 В 4 н/о н/о -8.7 -16.4 54 -15 -15 1000.4 987.5
00 14.04 В 3 н/о н/о -9.7 -17.8 52 -15 -15 1001.3 988.3 -9.8 0.0 123
03 14.04 В 3 н/о н/о -7.2 -18.3 41 -12 -12 1001.9 989.0
06 14.04 СВ 2 н/о н/о -4.3 -18.5 32 -8 -8 1003.1 990.3
09 14.04 С 1 н/о н/о -3.0 -17.9 31 -4 -4 1004.3 991.6
12 14.04 СЗ 5 н/о н/о -7.4 -13.4 62 -15 -15 1006.7 993.8 -2.2
15 14.04 З 4 н/о н/о -14.1 -17.3 77 -22 -22 1009.0 995.6
18 14.04 З 3 н/о н/о -17.4 -20.7 75 -24 -24 1010.6 997.0
21 14.04 З 3 н/о н/о -20.3 -23.6 75 -28 -28 1011.4 997.7
00 15.04 З 2 н/о н/о -22.8 -26.1 74 -29 -29 1012.8 998.9 -22.8 0.4 121
03 15.04 З 2 н/о н/о -19.6 -25.3 60 -25 -25 1013.4 999.7 -23.6
06 15.04 СЗ 3 н/о н/о -15.7 -22.6 55 -22 -22 1013.7 1000.2
09 15.04 СЗ 4 н/о н/о -13.9 -21.1 54 -21 -21 1014.4 1001.0
12 15.04 С 2 н/о н/о -15.6 -22.9 53 -21 -21 1014.2 1000.7 -13.9
15 15.04 СВ 1 н/о н/о -20.5 -25.0 67 -24 -24 1013.6 999.9
18 15.04 СВ 1 н/о н/о -27.5 -30.4 76 -31 -31 опасность
обморожения
1013.6 999.5
21 15.04 СВ 1 н/о н/о -30.6 -34.2 71 -35 -35 опасность
обморожения
1013.4 999.1
00 16.04 СВ 2 н/о н/о -27.6 -30.9 73 -35 -35 опасность
обморожения
1013.2 999.1 -31.6 121
03 16.04 СВ 2 н/о н/о -19.3 -25.5 58 -25 -25 1012.3 998.7
06 16.04 СВ 3 н/о н/о -13.7 -22.2 49 -20 -20 1011.6 998.3
09 16.04 СВ 3 н/о н/о -10.7 -20.8 43 -16 -16 1011.3 998.1
12 16.04 СВ 3 н/о н/о -11.0 -20.5 45 -17 -17 1011.1 997.9 -9.9
15 16.04 СВ 2 н/о н/о -12.7 -20.8 51 -17 -17 1011.4 998.1
18 16.04 В 3 н/о н/о -14.6 -20.3 62 -21 -21 1011.1 997.7
21 16.04 В 3 н/о н/о -16.3 -19.8 74 -23 -23 1010.9 997.4
00 17.04 В 3 н/о н/о -16.2 -20.0 72 -23 -23 1010.6 997.1 -17.2 120
03 17.04 В 4 н/о н/о -13.1 -18.0 67 -20 -20 1009.9 996.6
06 17.04 СВ 4 н/о н/о -8.9 -15.4 59 -16 -16 1009.0 995.9
09 17.04 СВ 3 н/о н/о -6.4 -14.4 53 -12 -12 1008.2 995.2
12 17.04 СВ 3 н/о н/о -7.0 -14.4 56 -12 -12 1008.0 995.0 -6.1
15 17.04 СВ 2 н/о н/о -8.8 -12.7 73 -13 -13 1007.1 994.1
18 17.04 В 3 н/о н/о -9.5 -13.9 70 -15 -15 1005.6 992.5
21 17.04 В 4 н/о н/о -9.7 -12.7 79 -17 -17 1004.0 991.0
00 18.04 СВ 4 н/о н/о -10.1 -12.6 82 -17 -17 1002.6 989.6 -10.4 0.4 119
03 18.04 СВ 3
{10}
н/о н/о -8.7 -11.4 81 -15 -15 1001.6 988.6
06 18.04 СВ 4 н/о н/о -6.7 -9.8 79 -13 -13 1000.5 987.7
09 18.04 СВ 2 н/о н/о -4.4 -7.8 77 -8 -8 1000.8 988.1
12 18.04 СЗ 4 н/о н/о -8.6 -10.8 84 -15 -15 1002.4 989.4 -4.0 3
15 18.04 З 3 н/о н/о -10.6 -12.5 86 -17 -17 1003.2 990.1
18 18.04 штиль 0 н/о н/о -12.4 -14.4 85 -12 -12 1003.6 990.4
21 18.04 ЮЗ 2 н/о н/о -14.5 -16.6 84 -19 -19 1004.4 991.1
00 19.04 Ю 2 н/о н/о -15.6 -18.4 79 -21 -21 1005.9 992.5 -15.7 2 123
03 19.04 СЗ 1 н/о н/о -13.8 -18.4 68 -16 -16 1007.0 993.7 -16.0

 

Местоположение метеостанции Светлогорск (Красноярский край, Россия): широта 66.95 долгота 88.42 высота над уровнем моря 101 м.

В архиве по умолчанию представлена погода в Светлогорске за последнюю неделю. Архивные данные за месяц целиком и за предыдущие месяцы, начиная с января 2011 года, Вы можете получить, выбрав интересующий диапазон дат из раскрывающегося списка и нажав кнопку "Ввод!".


*Определитесь, кто Вы:
робот инопланетянин человек

Внимание! Время в таблицах - всемирное. Для получения местного времени необходимо прибавить поправку, которая равна 7 ч.

Смотрите также архив погоды в соседних городах и на ближайших метеорологических станциях:

Погода в Горбиачине (Красноярский край, Россия) (64 км)
Погода в Курейке (Красноярский край, Россия) (75 км)
Погода в Игарке (Красноярский край, Россия) (98 км)
Погода в Снежногорске (Красноярский край, Россия) (131 км)
Погода в Туруханске (Красноярский край, Россия) (132 км)
Погода в Большом Пороге (Эвенкия, Россия) (164 км)
Погода в Советской Речке (Красноярский край, Россия) (202 км)
Погода в Потапово (Красноярский край, Россия) (212 км)
Погода в Агате (Эвенкия, Россия) (220 км)
Погода в Норильске (Красноярский край, Россия) (265 км)

Пояснения к столбцам:

Ветер - указаны скорость ветра в м/с - средняя за 10 мин, порывы в срок и между сроками (в фигурных скобках) и направление, откуда дует ветер: С - северный, СВ - северо-восточный, В - восточный, ЮВ - юго-восточный, Ю - южный, ЮЗ - юго-западный, З - западный, СЗ - северо-западный.
Видимость - горизонтальная дальность видимости в метрах или километрах. При видимости от 1 до 10 км при отсутствии осадков обычно наблюдается дымка, при ухудшении видимости до 1 км и менее - туман. В сухую погоду видимость может ухудшаться дымом, пылью или мглою.
Явления - указаны атмосферные явления, наблюдавшиеся в срок или в последний час перед сроком; фигурными скобками обозначены явления, наблюдавшиеся между сроками (за 1-3 часа до срока); квадратными скобками обозначены град или гололедные отложения с указанием их диаметра в мм.
Облачность - указаны через наклонную черту общая и нижняя облачность в баллах и высота нижней границы облаков в метрах; квадратными скобками обозначены формы облаков: Ci - перистые, Cs - перисто-слоистые, Cc - перисто-кучевые, Ac - высококучевые, As - высокослоистые, Sc - слоисто-кучевые, Ns - слоисто-дождевые, Cu - кучевые, Cb - кучево-дождевые. Подробнее классификацию облаков см. в Атласе облаков (PDF).
T - Температура воздуха - температура, измеренная на высоте 2 м над землей.
Td - Температура точки росы - температура, при понижении до которой содержащийся в воздухе водяной пар достигнет насыщения.
f - Относительная влажность воздуха - влажноcть воздуха, измеренная на высоте 2 м над землей.
Te - Эффективная температура - температура, которую ощущает одетый по сезону человек в тени. Характеристика душности погоды. При расчете учитывается влияние влажности воздуха и скорости ветра на теплоощущения человека.
Tes - Эффективная температура на солнце - температура, которую ощущает человек, с поправкой на солнечный нагрев. Характеристика знойности погоды. Зависит от высоты солнца над горизонтом, облачности и скорости ветра. Ночью, в пасмурную погоду, а также при ветре 12 м/с и более поправка равна нулю.
P - Атмосферное давление - приведенное к уровню моря атмосферное давление.
Po - Атмосферное давление - измеренное на уровне метеостанции атмосферное давление.
Tmin - Минимальная температура - минимум температуры воздуха на высоте 2 м над землей.
Tmax - Максимальная температура - максимум температуры воздуха на высоте 2 м над землей.
R - Количество осадков - Количество выпавших осадков за период времени, мм. При наведении курсора мыши на число - период времени, за который выпало указанное количество осадков.
R24 - Количество осадков - Количество выпавших осадков за 24 часа, мм.
S - Снежный покров - Высота снежного покрова, см. При наведении курсора мыши на число - состояние снежного покрова и степень покрытия местности в баллах.